User: anonymous   Login
Location: Wildcat Hills Observatory
(41.6350°N, 103.6812°W)
Time: 02:30:28
(UTC-07:00)
Language:

Cosmos 2315 Rocket - Orbit

View from above orbital plane
View from above orbital plane
View from above satellite
View from above satellite

Ground track
Ground track

The orbit data is extracted from the following two-line orbital elements,

1 23604U 95032B   19047.61185878 -.00000072 +00000-0 -91947-4 0  9994
2 23604 082.9007 063.1921 0023866 345.6689 014.3786 13.74302931184499
Epoch (UTC): 16 February 2019 14:41:04
Eccentricity: 0.0023866
inclination: 82.9007°
perigee height: 966 km
apogee height: 1002 km
right ascension of ascending node: 63.1921°
argument of perigee: 345.6689°
revolutions per day: 13.74302931
mean anomaly at epoch: 14.3786°
orbit number at epoch: 18449

The dashed part of the orbit path shows where the satellite is in the earth's shadow,  

DLR